FW2032 Weather Reports


time (UTC)temp
F
wind
direction
speed
knots
gust
knots
rain 1hr
in
rain 24hr
in
rain mn
in
humidity
%
barometer
mb
20260906175030 91 141 3.5 7.0 0.00 0.00 0.00 63 1016.7
20260906174556 91 147 3.5 7.0 0.00 0.00 0.00 63 1016.7
20260906174032 91 151 3.5 7.0 0.00 0.00 0.00 64 1016.7
20260906173532 91 179 2.6 7.0 0.00 0.00 0.00 65 1016.7
20260906173049 91 201 3.5 6.1 0.00 0.00 0.00 66 1016.8
20260906172531 91 193 2.6 5.2 0.00 0.00 0.00 68 1016.8
20260906172031 90 205 3.5 6.1 0.00 0.00 0.00 66 1017.1
20260906171554 90 154 3.5 6.1 0.00 0.00 0.00 65 1017.1
20260906171031 90 159 2.6 6.1 0.00 0.00 0.00 66 1017.2
20260906170530 90 159 3.5 7.0 0.00 0.00 0.00 65 1017.2
20260906170103 91 157 3.5 7.0 0.00 0.00 0.00 64 1017.3
20260906165529 91 148 1.7 4.3 0.00 0.00 0.00 65 1017.2
20260906165031 91 138 2.6 6.1 0.00 0.00 0.00 65 1017.3
20260906164553 90 137 2.6 6.1 0.00 0.00 0.00 65 1017.3
20260906164029 90 164 2.6 6.1 0.00 0.00 0.00 64 1017.3
20260906163531 90 143 1.7 6.1 0.00 0.00 0.00 66 1017.3
20260906163051 90 144 3.5 6.1 0.00 0.00 0.00 64 1017.4
20260906162532 90 126 2.6 6.1 0.00 0.00 0.00 65 1017.4
20260906162028 90 130 2.6 6.1 0.00 0.00 0.00 66 1017.4
20260906161546 90 103 3.5 6.1 0.00 0.00 0.00 65 1017.4
20260906161028 90 147 2.6 7.0 0.00 0.00 0.00 66 1017.3
20260906160529 90 145 2.6 7.0 0.00 0.00 0.00 65 1017.3
20260906160051 90 117 2.6 7.0 0.00 0.00 0.00 65 1017.3
20260906155532 90 137 0.9 7.0 0.00 0.00 0.00 64 1017.4
20260906155032 90 109 1.7 7.0 0.00 0.00 0.00 68 1017.4
20260906154552 89 131 2.6 7.8 0.00 0.00 0.00 67 1017.4
20260906154029 89 131 3.5 7.8 0.00 0.00 0.00 66 1017.4
20260906153533 89 136 2.6 7.0 0.00 0.00 0.00 67 1017.3
20260906153047 89 136 2.6 7.0 0.00 0.00 0.00 68 1017.3
20260906152528 89 106 1.7 6.1 0.00 0.00 0.00 69 1017.2
20260906152035 89 115 3.5 7.0 0.00 0.00 0.00 68 1017.1
20260906151559 89 96 2.6 7.0 0.00 0.00 0.00 69 1017.1
20260906151032 88 101 2.6 7.8 0.00 0.00 0.00 71 1017.1
20260906150532 88 147 3.5 7.8 0.00 0.00 0.00 70 1017.0
20260906150050 87 96 3.5 7.8 0.00 0.00 0.00 71 1017.1
20260906145532 87 138 4.3 7.0 0.00 0.00 0.00 72 1017.1
20260906145030 86 104 3.5 7.0 0.00 0.00 0.00 72 1017.3
20260906144548 86 136 2.6 7.0 0.00 0.00 0.00 73 1017.3
20260906144031 85 122 3.5 7.0 0.00 0.00 0.00 73 1017.2
20260906143532 85 108 4.3 7.0 0.00 0.00 0.00 74 1017.2
20260906143049 84 101 3.5 7.0 0.00 0.00 0.00 74 1017.0
20260906142531 84 88 1.7 6.1 0.00 0.00 0.00 77 1017.0
20260906142034 83 78 2.6 6.1 0.00 0.00 0.00 77 1017.1
20260906141545 83 92 1.7 5.2 0.00 0.00 0.00 79 1017.3
20260906141032 82 101 1.7 5.2 0.00 0.00 0.00 80 1017.4
20260906140533 81 92 1.7 5.2 0.00 0.00 0.00 82 1017.3
20260906140051 80 96 0.0 2.6 0.00 0.00 0.00 85 1017.3
20260906135535 79 0 0.9 2.6 0.00 0.00 0.00 87 1017.2
20260906135031 78 0 0.0 1.7 0.00 0.00 0.00 89 1017.3
20260906134548 77 0 0.0 1.7 0.00 0.00 0.00 90 1017.3
20260906134031 77 96 0.0 1.7 0.00 0.00 0.00 91 1017.2
20260906133528 77 0 0.0 1.7 0.00 0.00 0.00 93 1017.2
20260906133050 76 0 0.0 1.7 0.00 0.00 0.00 94 1017.2
20260906132532 75 0 0.0 0.0 0.00 0.00 0.00 94 1017.0
20260906132029 75 0 0.0 0.9 0.00 0.00 0.00 94 1016.7
20260906131547 74 0 0.0 1.7 0.00 0.00 0.00 94 1016.6
20260906131028 74 0 0.0 1.7 0.00 0.00 0.00 94 1016.6
20260906130532 73 97 0.0 0.9 0.00 0.00 0.00 94 1016.5
20260906130046 73 0 0.0 0.9 0.00 0.00 0.00 94 1016.4
20260906125532 73 0 0.0 0.9 0.00 0.00 0.00 94 1016.3
20260906125031 73 0 0.0 0.0 0.00 0.00 0.00 94 1016.3
20260906124550 72 0 0.0 0.0 0.00 0.00 0.00 95 1016.1
20260906124035 72 0 0.0 1.7 0.00 0.00 0.00 94 1016.0
20260906123528 71 0 0.0 2.6 0.00 0.00 0.00 94 1016.0
20260906123048 71 98 0.9 2.6 0.00 0.00 0.00 94 1015.9
20260906122529 71 98 0.0 1.7 0.00 0.00 0.00 94 1015.8
20260906122030 71 0 0.0 0.0 0.00 0.00 0.00 94 1015.8
20260906121553 71 0 0.0 0.0 0.00 0.00 0.00 94 1015.7
20260906121028 71 0 0.0 0.0 0.00 0.00 0.00 94 1015.6
20260906120529 71 0 0.0 0.0 0.00 0.00 0.00 94 1015.7
20260906120109 71 0 0.0 0.9 0.00 0.00 0.00 93 1015.6
20260906115529 71 0 0.0 1.7 0.00 0.00 0.00 94 1015.6
20260906115028 71 0 0.0 1.7 0.00 0.00 0.00 94 1015.5
20260906114548 71 98 0.9 1.7 0.00 0.00 0.00 94 1015.5
20260906114031 71 98 0.9 1.7 0.00 0.00 0.00 94 1015.5
20260906113528 71 98 0.9 1.7 0.00 0.00 0.00 93 1015.4
20260906113049 71 98 0.0 1.7 0.00 0.00 0.00 93 1015.4
20260906112533 71 0 0.0 0.9 0.00 0.00 0.00 93 1015.4
20260906112029 71 0 0.0 0.9 0.00 0.00 0.00 93 1015.3
20260906111604 71 0 0.0 2.6 0.00 0.00 0.00 93 1015.4
20260906111029 71 0 0.0 2.6 0.00 0.00 0.00 93 1015.3
20260906110528 72 98 0.9 1.7 0.00 0.00 0.00 93 1015.3
20260906110048 72 0 0.9 1.7 0.00 0.00 0.00 93 1015.3
20260906105529 72 98 0.0 1.7 0.00 0.00 0.00 93 1015.3
20260906105030 72 98 0.9 1.7 0.00 0.00 0.00 93 1015.2
20260906104549 71 0 0.0 1.7 0.00 0.00 0.00 92 1015.3
20260906104030 72 98 0.9 1.7 0.00 0.00 0.00 92 1015.2
20260906103528 72 98 0.0 1.7 0.00 0.00 0.00 92 1015.3
20260906103047 72 0 0.0 0.0 0.00 0.00 0.00 92 1015.2
20260906102528 72 0 0.0 0.0 0.00 0.00 0.00 92 1015.2
20260906102031 72 0 0.0 0.0 0.00 0.00 0.00 91 1015.2
20260906101546 72 0 0.0 0.0 0.00 0.00 0.00 91 1015.2
20260906101028 72 0 0.0 0.0 0.00 0.00 0.00 91 1015.2
20260906100530 72 0 0.0 0.0 0.00 0.00 0.00 92 1015.2
20260906100050 73 0 0.0 0.0 0.00 0.00 0.00 91 1015.1
20260906095529 73 0 0.0 0.0 0.00 0.00 0.00 91 1015.1
20260906095030 73 0 0.0 0.0 0.00 0.00 0.00 92 1015.1
20260906094548 73 0 0.0 1.7 0.00 0.00 0.00 92 1015.2
20260906094028 73 0 0.0 1.7 0.00 0.00 0.00 92 1015.1
20260906093529 73 98 0.0 1.7 0.00 0.00 0.00 92 1015.0
20260906093054 73 0 0.0 1.7 0.00 0.00 0.00 92 1015.0
20260906092528 73 98 0.0 1.7 0.00 0.00 0.00 92 1015.0
20260906092029 73 98 0.0 1.7 0.00 0.00 0.00 92 1015.0
20260906091550 73 98 0.0 1.7 0.00 0.00 0.00 92 1015.0
20260906091033 73 0 0.0 1.7 0.00 0.00 0.00 91 1014.9
20260906090533 73 0 0.0 0.0 0.00 0.00 0.00 91 1015.0
20260906085535 73 0 0.0 0.0 0.00 0.00 0.00 92 1014.9
20260906085033 73 0 0.0 0.0 0.00 0.00 0.00 91 1014.8
20260906084551 74 0 0.0 0.0 0.00 0.00 0.00 91 1014.8
20260906084033 74 0 0.0 0.0 0.00 0.00 0.00 91 1014.8
20260906083529 74 0 0.0 0.0 0.00 0.00 0.00 91 1014.7
20260906083054 74 0 0.0 0.0 0.00 0.00 0.00 91 1014.6
20260906082529 74 0 0.0 0.0 0.00 0.00 0.00 91 1014.6
20260906082033 74 0 0.0 0.0 0.00 0.00 0.00 91 1014.7
20260906081550 74 0 0.0 0.0 0.00 0.00 0.00 91 1014.5
20260906081029 74 0 0.0 0.0 0.00 0.00 0.00 90 1014.6
20260906080529 74 0 0.0 0.0 0.00 0.00 0.00 90 1014.5
20260906080050 74 0 0.0 0.0 0.00 0.00 0.00 89 1014.4
20260906075532 74 0 0.0 0.0 0.00 0.00 0.00 89 1014.4
20260906075029 74 0 0.0 0.0 0.00 0.00 0.00 89 1014.3
20260906074547 75 0 0.0 0.0 0.00 0.00 0.00 88 1014.3
20260906074029 75 0 0.0 0.0 0.00 0.00 0.00 88 1014.4
20260906073529 75 0 0.0 0.0 0.00 0.00 0.00 89 1014.4
20260906073052 75 0 0.0 0.0 0.00 0.00 0.00 88 1014.3
20260906072529 75 0 0.0 0.0 0.00 0.00 0.00 88 1014.4
20260906072029 76 0 0.0 0.0 0.00 0.00 0.00 87 1014.4
20260906071558 76 0 0.0 0.0 0.00 0.00 0.00 86 1014.4
20260906071033 76 0 0.0 0.0 0.00 0.00 0.00 86 1014.4
20260906070533 76 0 0.0 0.0 0.00 0.00 0.00 85 1014.4
20260906070056 76 0 0.0 0.0 0.00 0.00 0.00 84 1014.6
20260906065532 77 0 0.0 0.0 0.00 0.00 0.00 84 1014.7
20260906065032 77 0 0.0 0.0 0.00 0.00 0.00 84 1014.7
20260906064550 77 0 0.0 0.0 0.00 0.00 0.00 83 1014.7
20260906064029 77 0 0.0 0.0 0.00 0.00 0.00 83 1014.8
20260906063533 77 0 0.0 0.0 0.00 0.00 0.00 83 1014.7
20260906063055 77 0 0.0 0.0 0.00 0.00 0.00 83 1014.8
20260906062535 77 0 0.0 0.0 0.00 0.00 0.00 83 1014.7
20260906062033 77 0 0.0 0.0 0.00 0.00 0.00 82 1014.9
20260906061548 78 0 0.0 0.0 0.00 0.00 0.00 83 1014.8
20260906061032 78 0 0.0 0.0 0.00 0.00 0.00 83 1014.8
20260906060528 78 0 0.0 0.0 0.00 0.00 0.00 83 1014.9
20260906060058 78 0 0.0 0.0 0.00 0.00 0.00 83 1014.9
20260906055530 78 0 0.0 0.0 0.00 0.00 0.00 83 1014.9
20260906055029 78 0 0.0 0.0 0.00 0.00 0.00 83 1014.9
20260906054550 78 0 0.0 0.0 0.00 0.00 0.00 83 1014.9
20260906054033 78 0 0.0 0.0 0.00 0.00 0.00 83 1015.0
20260906053529 78 0 0.0 0.0 0.00 0.00 0.00 82 1014.9
20260906053051 78 0 0.0 0.0 0.00 0.00 0.00 82 1015.0
20260906052530 78 0 0.0 0.0 0.00 0.00 0.00 82 1015.0
20260906052033 78 0 0.0 0.0 0.00 0.00 0.00 82 1014.9
20260906051546 78 0 0.0 0.0 0.00 0.00 0.00 82 1014.9
20260906051029 78 0 0.0 0.0 0.00 0.00 0.00 82 1014.9
20260906050533 78 0 0.0 0.0 0.00 0.00 0.00 82 1014.9
20260906050055 78 0 0.0 0.0 0.00 0.00 0.00 81 1015.0
20260906045529 78 0 0.0 0.0 0.00 0.00 0.00 81 1015.0
20260906045029 79 0 0.0 0.0 0.00 0.00 0.00 81 1015.0
20260906044550 79 0 0.0 0.0 0.00 0.00 0.00 81 1014.9
20260906044030 79 0 0.0 0.0 0.00 0.00 0.00 81 1015.0
20260906043529 79 0 0.0 0.0 0.00 0.00 0.00 81 1014.9
20260906043046 79 0 0.0 0.0 0.00 0.00 0.00 81 1014.9
20260906042529 79 0 0.0 0.0 0.00 0.00 0.00 81 1014.8
20260906042029 79 0 0.0 0.0 0.00 0.00 0.00 80 1014.9
20260906041556 79 0 0.0 0.0 0.00 0.00 0.00 80 1014.8
20260906041028 80 0 0.0 0.0 0.00 0.00 0.00 79 1014.9
20260906040528 80 0 0.0 0.0 0.00 0.00 0.00 79 1014.9
20260906040051 80 0 0.0 0.0 0.00 0.00 0.00 79 1014.7
20260906035528 80 0 0.0 0.0 0.00 0.00 0.00 79 1014.7
20260906035029 80 0 0.0 0.0 0.00 0.00 0.00 79 1014.7
20260906034548 80 0 0.0 0.0 0.00 0.00 0.00 79 1014.7
20260906034029 80 0 0.0 0.0 0.00 0.00 0.00 79 1014.6
20260906033528 80 0 0.0 0.0 0.00 0.00 0.00 79 1014.6
20260906033045 80 0 0.0 0.0 0.00 0.00 0.00 79 1014.5
20260906032528 81 0 0.0 0.0 0.00 0.00 0.00 79 1014.5
20260906032028 81 0 0.0 0.0 0.00 0.00 0.00 78 1014.5
20260906031553 81 0 0.0 0.0 0.00 0.00 0.00 78 1014.5
20260906031028 81 0 0.0 0.0 0.00 0.00 0.00 78 1014.4
20260906030529 81 0 0.0 0.0 0.00 0.00 0.00 78 1014.4
20260906030050 81 0 0.0 0.0 0.00 0.00 0.00 77 1014.3
20260906025534 81 0 0.0 0.0 0.00 0.00 0.00 77 1014.2
20260906025029 82 0 0.0 0.9 0.00 0.00 0.00 77 1014.1
20260906024559 82 0 0.0 0.9 0.00 0.00 0.00 76 1014.1
20260906024032 82 0 0.0 1.7 0.00 0.00 0.00 76 1014.1
20260906023530 82 0 0.0 1.7 0.00 0.00 0.00 75 1014.1
20260906023056 83 70 0.0 1.7 0.00 0.00 0.00 75 1014.0
20260906022528 83 70 0.9 1.7 0.00 0.00 0.00 75 1013.8
20260906022030 83 0 0.0 1.7 0.00 0.00 0.00 74 1013.8
20260906021556 83 70 0.0 1.7 0.00 0.00 0.00 74 1013.8
20260906021031 83 0 0.0 0.9 0.00 0.00 0.00 74 1013.7
20260906020529 84 0 0.0 0.9 0.00 0.00 0.00 74 1013.8
20260906020052 84 0 0.0 0.9 0.00 0.00 0.00 73 1013.7
20260906015529 84 0 0.0 1.7 0.00 0.00 0.00 73 1013.7
20260906015030 84 0 0.0 1.7 0.00 0.00 0.00 73 1013.5
20260906014600 85 70 0.9 1.7 0.00 0.00 0.00 73 1013.5
20260906014033 85 70 0.9 1.7 0.00 0.00 0.00 72 1013.5
20260906013528 85 70 0.9 1.7 0.00 0.00 0.00 72 1013.5
20260906013047 85 70 0.9 1.7 0.00 0.00 0.00 72 1013.4
20260906012529 86 0 0.0 1.7 0.00 0.00 0.00 71 1013.3
20260906012029 86 0 0.0 1.7 0.00 0.00 0.00 71 1013.3
20260906011548 86 0 0.0 2.6 0.00 0.00 0.00 71 1013.2
20260906011029 86 70 0.9 2.6 0.00 0.00 0.00 71 1013.2
20260906010530 87 70 0.9 2.6 0.00 0.00 0.00 70 1013.1
20260906010109 87 70 0.9 2.6 0.00 0.00 0.00 70 1013.1
20260906005529 87 70 0.9 2.6 0.00 0.00 0.00 70 1013.1
20260906005033 88 70 0.9 1.7 0.00 0.00 0.00 70 1013.2
20260906004553 88 70 0.9 1.7 0.00 0.00 0.00 69 1013.2
20260906004029 88 70 0.9 2.6 0.00 0.00 0.00 69 1013.2
20260906003529 89 70 0.9 2.6 0.00 0.00 0.00 69 1013.2
20260906003108 89 70 0.9 2.6 0.00 0.00 0.00 68 1013.2
20260906002528 90 70 1.7 2.6 0.00 0.00 0.00 67 1013.3
20260906002029 90 70 0.9 2.6 0.00 0.00 0.00 67 1013.2
20260906001549 91 68 0.9 2.6 0.00 0.00 0.00 67 1013.2
20260906001029 91 68 0.9 2.6 0.00 0.00 0.00 67 1013.2
20260906000528 92 68 0.9 2.6 0.00 0.00 0.00 67 1013.2
20260906000046 92 68 0.9 2.6 0.00 0.00 0.00 66 1013.3
20260905235529 92 68 1.7 2.6 0.00 0.00 0.00 64 1013.3
20260905235028 93 68 1.7 2.6 0.00 0.00 0.00 64 1013.3
20260905234553 93 0 0.0 0.0 0.00 0.00 0.00 65 1013.3
20260905234033 93 0 0.0 0.0 0.00 0.00 0.00 64 1013.2
20260905233529 93 0 0.0 0.0 0.00 0.00 0.00 64 1013.1
20260905233046 93 0 0.0 0.0 0.00 0.00 0.00 64 1013.1
20260905232531 93 0 0.0 0.0 0.00 0.00 0.00 63 1013.2
20260905232029 93 0 0.0 1.7 0.00 0.00 0.00 62 1013.1
20260905231546 93 0 0.0 2.6 0.00 0.00 0.00 62 1013.1
20260905231028 93 0 0.9 2.6 0.00 0.00 0.00 63 1013.2
20260905230529 94 112 0.9 2.6 0.00 0.00 0.00 61 1013.1
20260905230053 94 112 0.9 2.6 0.00 0.00 0.00 60 1013.2
20260905225529 94 113 0.9 3.5 0.00 0.00 0.00 60 1013.2
20260905225029 94 116 1.7 3.5 0.00 0.00 0.00 60 1013.1
20260905224546 94 116 0.9 2.6 0.00 0.00 0.00 60 1013.1
20260905224029 94 0 0.9 2.6 0.00 0.00 0.00 59 1013.2
20260905223529 95 116 0.9 2.6 0.00 0.00 0.00 58 1013.2
20260905223053 95 116 0.9 2.6 0.00 0.00 0.00 56 1013.2
20260905222532 95 116 0.9 3.5 0.00 0.00 0.00 56 1013.2
20260905222030 95 117 1.7 3.5 0.00 0.00 0.00 54 1013.2
20260905221547 96 117 1.7 5.2 0.00 0.00 0.00 53 1013.2
20260905221028 96 117 1.7 5.2 0.00 0.00 0.00 52 1013.2
20260905220528 96 117 2.6 5.2 0.00 0.00 0.00 50 1013.2
20260905220047 96 114 1.7 5.2 0.00 0.00 0.00 50 1013.3
20260905215529 96 115 2.6 5.2 0.00 0.00 0.00 48 1013.2
20260905215033 96 99 2.6 5.2 0.00 0.00 0.00 49 1013.3
20260905214552 96 97 1.7 5.2 0.00 0.00 0.00 50 1013.5
20260905214029 96 97 1.7 6.1 0.00 0.00 0.00 51 1013.5
20260905213529 97 118 2.6 6.1 0.00 0.00 0.00 50 1013.7
20260905213047 97 70 3.5 6.1 0.00 0.00 0.00 47 1013.8
20260905212531 97 99 2.6 7.0 0.00 0.00 0.00 46 1013.8
20260905212028 98 119 3.5 8.7 0.00 0.00 0.00 47 1013.9
20260905211556 98 100 4.3 8.7 0.00 0.00 0.00 46 1014.0
20260905211032 98 130 5.2 9.6 0.00 0.00 0.00 44 1014.0
20260905210532 98 106 3.5 9.6 0.00 0.00 0.00 45 1014.1
20260905210052 98 95 2.6 7.8 0.00 0.00 0.00 45 1014.0
20260905205529 98 165 4.3 7.8 0.00 0.00 0.00 46 1014.0
20260905205029 98 163 1.7 7.0 0.00 0.00 0.00 47 1014.0
20260905204558 98 130 4.3 8.7 0.00 0.00 0.00 45 1014.2
20260905204029 98 148 5.2 8.7 0.00 0.00 0.00 46 1014.3
20260905203531 98 182 4.3 8.7 0.00 0.00 0.00 47 1014.2
20260905203059 97 157 3.5 7.8 0.00 0.00 0.00 47 1014.2
20260905202529 97 174 4.3 11.3 0.00 0.00 0.00 48 1014.3
20260905202028 97 166 6.1 11.3 0.00 0.00 0.00 46 1014.5
20260905201546 98 157 2.6 8.7 0.00 0.00 0.00 48 1014.5
20260905201029 98 99 2.6 7.0 0.00 0.00 0.00 47 1014.6
20260905200533 98 103 2.6 7.8 0.00 0.00 0.00 47 1014.6
20260905200100 98 148 2.6 9.6 0.00 0.00 0.00 47 1014.7
20260905195529 97 163 5.2 9.6 0.00 0.00 0.00 47 1014.9
20260905195029 97 160 3.5 8.7 0.00 0.00 0.00 46 1015.0
20260905194551 98 121 2.6 8.7 0.00 0.00 0.00 47 1015.0
20260905194031 98 128 4.3 7.8 0.00 0.00 0.00 46 1015.1
20260905193529 98 107 2.6 8.7 0.00 0.00 0.00 47 1015.2
20260905193104 98 130 4.3 9.6 0.00 0.00 0.00 45 1015.2
20260905192529 98 146 3.5 9.6 0.00 0.00 0.00 48 1015.2
20260905192029 98 109 4.3 10.4 0.00 0.00 0.00 49 1015.3
20260905191558 97 131 4.3 10.4 0.00 0.00 0.00 49 1015.3
20260905191028 97 157 1.7 7.8 0.00 0.00 0.00 48 1015.2
20260905190529 97 171 2.6 9.6 0.00 0.00 0.00 48 1015.2
20260905190100 97 157 5.2 10.4 0.00 0.00 0.00 49 1015.2
20260905185530 97 219 4.3 10.4 0.00 0.00 0.00 50 1015.2
20260905185033 97 188 2.6 10.4 0.00 0.00 0.00 48 1015.2
20260905184555 97 152 4.3 10.4 0.00 0.00 0.00 48 1015.3
20260905184032 97 184 5.2 9.6 0.00 0.00 0.00 49 1015.3
20260905183529 97 220 4.3 8.7 0.00 0.00 0.00 51 1015.3
20260905183100 96 160 3.5 8.7 0.00 0.00 0.00 52 1015.4
20260905182529 95 144 5.2 8.7 0.00 0.00 0.00 51 1015.5
20260905182030 95 167 4.3 10.4 0.00 0.00 0.00 53 1015.6
20260905181554 95 178 5.2 10.4 0.00 0.00 0.00 53 1015.7
20260905181029 96 161 4.3 8.7 0.00 0.00 0.00 52 1015.7
20260905180534 96 160 4.3 7.8 0.00 0.00 0.00 55 1015.8
20260905180100 95 155 3.5 7.8 0.00 0.00 0.00 56 1015.9
20260905175532 95 155 2.6 7.0 0.00 0.00 0.00 59 1015.9